Location: Albany
(35.0000°S, 118.0000°E)
Time: 06:18:54
(UTC-05:00)

Atlas Centaur 2 - Pass Details

Date: 25 August 2017
Orbit: 459 x 1313 km, 30.4° (Epoch: 22 November)

Event Time Altitude Azimuth Distance (km) Brightness Sun altitude
Exits shadow 18:06:32 - 282° (WNW) 1,861 3.4 -6.7°
Reaches altitude 10° 18:07:10 10° 285° (WNW) 1,617 3.1 -6.5°
Maximum altitude 18:10:30 35° 353° (N) 758 2.1 -5.9°
Drops below altitude 10° 18:13:54 10° 60° (ENE) 1,653 5.2 -5.2°
Sets 18:16:17 0° 69° (ENE) 2,596 6.9 -4.7°
